When you browse on this site, cookies collect data to enhance your experience and personalize the content and advertising you see.
Visit our Privacy Policy to learn more. By continuing to use the site, you agree to this use of cookies and data.
  • In Romania
  • List of Countries
  • For 7 days
  • Water Temperature
  • Satellite Maps
  • Weather Map
  • Weather Widgets
  • user-avatar
    Login

    Hourly Weather Odense

    Today, 22 May, Wednesday

    Time Temperature Precipitation Wind Pressure Humidity
    00:00 +14°C° 0.3 mm 4 mps 755 mmHg 97%
    01:00 +13°C° 0 mm 6 mps 755 mmHg 96%
    02:00 +13°C° 0.6 mm 6 mps 755 mmHg 96%
    03:00 +13°C° 0.6 mm 5 mps 755 mmHg 96%
    04:00 +12°C° 0.6 mm 5 mps 755 mmHg 96%
    05:00 +12°C° 1 mm 5 mps 756 mmHg 96%
    06:00 +11°C° 1 mm 6 mps 756 mmHg 95%
    07:00 +10°C° 0 mm 7 mps 756 mmHg 93%
    08:00 +10°C° 0.5 mm 7 mps 757 mmHg 93%
    09:00 +9°C° 0.5 mm 6 mps 757 mmHg 93%
    10:00 +9°C° 0.5 mm 6 mps 758 mmHg 93%
    11:00 +10°C° 0.2 mm 6 mps 758 mmHg 93%
    12:00 +10°C° 0.2 mm 6 mps 758 mmHg 93%
    13:00 +10°C° 0.2 mm 6 mps 759 mmHg 92%
    14:00 +10°C° 0 mm 6 mps 759 mmHg 91%
    15:00 +10°C° 0 mm 6 mps 759 mmHg 90%
    16:00 +10°C° 0 mm 6 mps 759 mmHg 89%
    17:00 +12°C° 0 mm 5 mps 760 mmHg 87%
    18:00 +12°C° 0 mm 5 mps 760 mmHg 85%
    19:00 +12°C° 0 mm 5 mps 760 mmHg 83%
    20:00 +10°C° 0 mm 5 mps 760 mmHg 85%
    21:00 +9°C° 0 mm 5 mps 760 mmHg 87%
    22:00 +8°C° 0 mm 4 mps 760 mmHg 88%
    23:00 +8°C° 0 mm 4 mps 761 mmHg 90%

    Tomorrow, 23 May, Thursday

    Time Temperature Precipitation Wind Pressure Humidity
    00:00 +7°C° 0 mm 4 mps 761 mmHg 92%
    01:00 +7°C° 0 mm 4 mps 761 mmHg 93%
    02:00 +7°C° 0 mm 4 mps 761 mmHg 93%
    03:00 +7°C° 0 mm 4 mps 761 mmHg 93%
    04:00 +7°C° 0 mm 4 mps 761 mmHg 93%
    05:00 +8°C° 0 mm 4 mps 761 mmHg 90%
    06:00 +8°C° 0 mm 4 mps 761 mmHg 86%
    07:00 +10°C° 0 mm 4 mps 761 mmHg 82%
    08:00 +12°C° 0 mm 5 mps 761 mmHg 80%
    09:00 +13°C° 0 mm 5 mps 761 mmHg 78%
    10:00 +14°C° 0 mm 6 mps 761 mmHg 76%
    11:00 +15°C° 0.1 mm 6 mps 761 mmHg 74%
    12:00 +15°C° 0.1 mm 6 mps 761 mmHg 72%
    13:00 +16°C° 0.1 mm 7 mps 760 mmHg 71%
    14:00 +16°C° 0.1 mm 7 mps 760 mmHg 70%
    15:00 +16°C° 0.1 mm 7 mps 760 mmHg 70%
    16:00 +16°C° 0.1 mm 6 mps 760 mmHg 70%
    17:00 +15°C° 0 mm 6 mps 760 mmHg 71%
    18:00 +14°C° 0 mm 5 mps 760 mmHg 73%
    19:00 +13°C° 0 mm 4 mps 759 mmHg 75%
    20:00 +12°C° 0 mm 4 mps 760 mmHg 77%
    21:00 +10°C° 0 mm 4 mps 760 mmHg 78%
    22:00 +8°C° 0 mm 4 mps 760 mmHg 80%
    23:00 +8°C° 0 mm 5 mps 759 mmHg 81%

    Day after tomorrow, 24 May, Friday

    Time Temperature Precipitation Wind Pressure Humidity
    00:00 +7°C° 0 mm 5 mps 759 mmHg 81%
    01:00 +7°C° 0 mm 5 mps 759 mmHg 82%
    02:00 +7°C° 0 mm 5 mps 759 mmHg 81%
    03:00 +7°C° 0 mm 5 mps 758 mmHg 81%
    04:00 +8°C° 0 mm 5 mps 758 mmHg 80%
    05:00 +9°C° 0 mm 6 mps 758 mmHg 81%
    06:00 +10°C° 0 mm 6 mps 758 mmHg 81%
    07:00 +11°C° 0 mm 7 mps 758 mmHg 81%
    08:00 +12°C° 0 mm 7 mps 758 mmHg 79%
    09:00 +14°C° 0 mm 7 mps 758 mmHg 77%
    10:00 +15°C° 0 mm 7 mps 758 mmHg 75%
    11:00 +15°C° 0.1 mm 8 mps 757 mmHg 73%
    12:00 +16°C° 0.1 mm 8 mps 757 mmHg 71%
    13:00 +16°C° 0.1 mm 8 mps 757 mmHg 68%
    14:00 +15°C° 0.1 mm 8 mps 757 mmHg 71%
    15:00 +13°C° 0.1 mm 8 mps 757 mmHg 73%
    16:00 +14°C° 0.1 mm 7 mps 757 mmHg 75%
    17:00 +12°C° 0 mm 7 mps 757 mmHg 78%
    18:00 +11°C° 0 mm 7 mps 756 mmHg 81%
    19:00 +11°C° 0 mm 7 mps 756 mmHg 83%
    20:00 +10°C° 0 mm 7 mps 756 mmHg 84%
    21:00 +10°C° 0 mm 7 mps 757 mmHg 85%
    22:00 +9°C° 0 mm 6 mps 757 mmHg 86%
    23:00 +9°C° 0 mm 6 mps 757 mmHg 88%

    25 May, Saturday

    Time Temperature Precipitation Wind Pressure Humidity
    00:00 +8°C° 0 mm 6 mps 757 mmHg 90%
    01:00 +8°C° 0 mm 6 mps 756 mmHg 92%
    02:00 +8°C° 0 mm 6 mps 756 mmHg 93%
    03:00 +8°C° 0 mm 6 mps 756 mmHg 93%
    04:00 +8°C° 0 mm 6 mps 756 mmHg 94%
    05:00 +9°C° 0 mm 6 mps 757 mmHg 90%
    06:00 +9°C° 0 mm 7 mps 757 mmHg 87%
    07:00 +10°C° 0 mm 7 mps 757 mmHg 84%
    08:00 +11°C° 0 mm 7 mps 757 mmHg 82%
    09:00 +11°C° 0 mm 7 mps 757 mmHg 81%
    10:00 +11°C° 0 mm 7 mps 757 mmHg 79%
    11:00 +11°C° 0.1 mm 7 mps 757 mmHg 80%
    12:00 +11°C° 0.1 mm 7 mps 757 mmHg 81%
    13:00 +12°C° 0.1 mm 7 mps 757 mmHg 82%
    14:00 +11°C° 0.1 mm 7 mps 757 mmHg 83%
    15:00 +11°C° 0.1 mm 8 mps 756 mmHg 85%
    16:00 +11°C° 0.1 mm 8 mps 756 mmHg 86%
    17:00 +11°C° 0.1 mm 8 mps 756 mmHg 85%
    18:00 +11°C° 0.1 mm 8 mps 756 mmHg 84%
    19:00 +10°C° 0.1 mm 8 mps 755 mmHg 83%
    20:00 +10°C° 0 mm 8 mps 755 mmHg 81%
    21:00 +9°C° 0 mm 8 mps 755 mmHg 78%
    22:00 +8°C° 0 mm 9 mps 755 mmHg 76%
    23:00 +7°C° 0 mm 9 mps 755 mmHg 74%

    26 May, Sunday

    Time Temperature Precipitation Wind Pressure Humidity
    00:00 +7°C° 0 mm 9 mps 755 mmHg 72%
    01:00 +7°C° 0 mm 10 mps 755 mmHg 70%
    02:00 +7°C° 0 mm 10 mps 754 mmHg 69%
    03:00 +7°C° 0 mm 10 mps 754 mmHg 69%
    04:00 +7°C° 0 mm 10 mps 753 mmHg 68%
    05:00 +7°C° 0.1 mm 10 mps 753 mmHg 69%
    06:00 +7°C° 0.1 mm 11 mps 753 mmHg 71%
    07:00 +7°C° 0.1 mm 11 mps 752 mmHg 72%
    08:00 +7°C° 0.1 mm 11 mps 752 mmHg 71%
    09:00 +7°C° 0.1 mm 12 mps 752 mmHg 70%
    10:00 +7°C° 0.1 mm 12 mps 752 mmHg 69%
    11:00 +8°C° 0 mm 12 mps 752 mmHg 69%
    12:00 +8°C° 0 mm 12 mps 752 mmHg 69%
    13:00 +9°C° 0 mm 12 mps 753 mmHg 70%
    14:00 +9°C° 0 mm 12 mps 753 mmHg 70%
    15:00 +9°C° 0 mm 11 mps 753 mmHg 70%
    16:00 +9°C° 0 mm 10 mps 753 mmHg 71%
    17:00 +8°C° 0 mm 10 mps 754 mmHg 72%
    18:00 +8°C° 0 mm 10 mps 754 mmHg 73%
    19:00 +8°C° 0 mm 9 mps 754 mmHg 75%
    20:00 +7°C° 0 mm 9 mps 754 mmHg 74%
    21:00 +7°C° 0 mm 8 mps 754 mmHg 73%
    22:00 +6°C° 0 mm 8 mps 754 mmHg 73%
    23:00 +6°C° 0 mm 7 mps 754 mmHg 75%

    27 May, Monday

    Time Temperature Precipitation Wind Pressure Humidity
    00:00 +7°C° 0 mm 6 mps 754 mmHg 77%
    01:00 +5°C° 0 mm 6 mps 754 mmHg 79%
    02:00 +6°C° 0 mm 5 mps 754 mmHg 79%
    03:00 +6°C° 0 mm 5 mps 754 mmHg 80%
    04:00 +6°C° 0 mm 4 mps 754 mmHg 80%
    05:00 +7°C° 0 mm 4 mps 754 mmHg 80%
    06:00 +8°C° 0 mm 4 mps 753 mmHg 79%
    07:00 +8°C° 0 mm 4 mps 753 mmHg 78%
    08:00 +10°C° 0 mm 4 mps 753 mmHg 77%
    09:00 +10°C° 0 mm 4 mps 753 mmHg 76%
    10:00 +11°C° 0 mm 4 mps 753 mmHg 75%
    11:00 +11°C° 0 mm 3 mps 753 mmHg 75%
    12:00 +11°C° 0 mm 3 mps 753 mmHg 76%
    13:00 +11°C° 0 mm 3 mps 753 mmHg 76%
    14:00 +11°C° 0 mm 3 mps 752 mmHg 77%
    15:00 +12°C° 0 mm 2 mps 752 mmHg 77%
    16:00 +12°C° 0 mm 2 mps 752 mmHg 77%
    17:00 +12°C° 0.1 mm 2 mps 752 mmHg 80%
    18:00 +12°C° 0.1 mm 2 mps 752 mmHg 82%
    19:00 +10°C° 0.1 mm 3 mps 752 mmHg 84%
    20:00 +10°C° 0.1 mm 3 mps 752 mmHg 85%
    21:00 +9°C° 0.1 mm 3 mps 752 mmHg 85%
    22:00 +7°C° 0.1 mm 4 mps 752 mmHg 86%
    23:00 +7°C° 0.1 mm 4 mps 752 mmHg 86%
    Show more